User: anonymous   Login
Location: Unspecified
(0.0000°N, 0.0000°E)
Time: 04:30:14
(UTC+00:00)
Language:

BEESAT 2 - Orbit

View from above orbital plane
View from above orbital plane
View from above satellite
View from above satellite

Ground track
Ground track

The orbit data is extracted from the following two-line orbital elements,

1 39136U 13015G   22267.94373417  .00011978  00000-0  48835-3 0  9996
2 39136  64.8738 142.1408 0022456 293.4443  66.4326 15.24552879521078
Epoch (UTC): 24 September 2022 22:38:58
Eccentricity: 0.0022456
inclination: 64.8738°
perigee height: 477 km
apogee height: 507 km
right ascension of ascending node: 142.1408°
argument of perigee: 293.4443°
revolutions per day: 15.24552879
mean anomaly at epoch: 66.4326°
orbit number at epoch: 52107

The dashed part of the orbit path shows where the satellite is in the earth's shadow,  

DLR